Time,TemperatureF,DewpointF,PressureIn,WindDirection,WindDirectionDegrees,WindSpeedMPH,WindSpeedGustMPH,Humidity,HourlyPrecipIn,Conditions,Clouds,dailyrainin,SoftwareType,DateUTC
2013-10-07 00:02:00,52.6,44.7,29.99,SE,133,0.0,12.0,74,0.00,,,0.01,WUHU216DAVISVP2,2013-10-07 05:02:00,
2013-10-07 00:07:00,52.3,44.7,29.99,SE,127,0.0,12.0,75,0.00,,,0.00,WUHU216DAVISVP2,2013-10-07 05:07:00,
2013-10-07 00:12:00,52.0,44.4,29.99,SE,131,2.0,8.0,75,0.00,,,0.00,WUHU216DAVISVP2,2013-10-07 05:12:00,
2013-10-07 00:17:00,51.8,44.6,29.99,SE,131,0.0,7.0,76,0.00,,,0.00,WUHU216DAVISVP2,2013-10-07 05:17:00,
2013-10-07 00:22:00,51.4,44.5,30.00,SE,131,0.0,5.0,77,0.00,,,0.00,WUHU216DAVISVP2,2013-10-07 05:22:00,
2013-10-07 00:27:00,51.1,44.2,30.00,SE,131,0.0,5.0,77,0.00,,,0.00,WUHU216DAVISVP2,2013-10-07 05:27:00,
2013-10-07 00:32:00,50.8,44.3,30.00,SE,131,0.0,4.0,78,0.00,,,0.00,WUHU216DAVISVP2,2013-10-07 05:32:00,
2013-10-07 00:37:00,50.6,44.4,30.00,SE,131,0.0,4.0,79,0.00,,,0.00,WUHU216DAVISVP2,2013-10-07 05:37:00,
2013-10-07 00:42:00,50.5,44.3,30.00,SE,131,2.0,5.0,79,0.00,,,0.00,WUHU216DAVISVP2,2013-10-07 05:42:00,
2013-10-07 00:47:00,50.6,44.4,30.00,SE,137,1.0,9.0,79,0.00,,,0.00,WUHU216DAVISVP2,2013-10-07 05:47:00,
2013-10-07 00:52:00,50.5,44.3,30.00,SE,137,0.0,9.0,79,0.00,,,0.00,WUHU216DAVISVP2,2013-10-07 05:52:00,
2013-10-07 00:57:00,50.4,44.2,30.00,SE,137,1.0,9.0,79,0.00,,,0.00,WUHU216DAVISVP2,2013-10-07 05:57:00,
2013-10-07 01:02:00,50.2,44.0,30.00,SE,137,0.0,9.0,79,0.00,,,0.00,WUHU216DAVISVP2,2013-10-07 06:02:00,
2013-10-07 01:07:00,50.1,44.2,30.00,SE,137,0.0,7.0,80,0.00,,,0.00,WUHU216DAVISVP2,2013-10-07 06:07:00,
2013-10-07 01:12:00,49.8,43.9,30.00,SE,137,0.0,7.0,80,0.00,,,0.00,WUHU216DAVISVP2,2013-10-07 06:12:00,
2013-10-07 01:17:00,49.6,44.0,30.00,SE,137,0.0,7.0,81,0.00,,,0.00,WUHU216DAVISVP2,2013-10-07 06:17:00,
2013-10-07 01:22:00,49.5,43.9,30.00,SE,137,0.0,4.0,81,0.00,,,0.00,WUHU216DAVISVP2,2013-10-07 06:22:00,
2013-10-07 01:27:00,49.2,43.7,30.00,SE,137,0.0,0.0,81,0.00,,,0.00,WUHU216DAVISVP2,2013-10-07 06:27:00,
2013-10-07 01:32:00,48.9,43.7,30.00,SE,137,0.0,0.0,82,0.00,,,0.00,WUHU216DAVISVP2,2013-10-07 06:32:00,
2013-10-07 01:37:00,48.7,43.5,30.00,SE,137,0.0,0.0,82,0.00,,,0.00,WUHU216DAVISVP2,2013-10-07 06:37:00,
2013-10-07 01:42:00,48.4,43.5,30.00,SE,137,0.0,0.0,83,0.00,,,0.00,WUHU216DAVISVP2,2013-10-07 06:42:00,
2013-10-07 01:47:00,48.2,43.6,30.00,SE,137,0.0,0.0,84,0.00,,,0.00,WUHU216DAVISVP2,2013-10-07 06:47:00,
2013-10-07 01:52:00,48.0,43.4,30.00,SE,137,0.0,0.0,84,0.00,,,0.00,WUHU216DAVISVP2,2013-10-07 06:52:00,
2013-10-07 01:57:00,47.9,43.3,30.00,SE,137,0.0,0.0,84,0.00,,,0.00,WUHU216DAVISVP2,2013-10-07 06:57:00,
2013-10-07 02:02:00,48.0,43.3,30.00,SE,137,0.0,0.0,84,0.00,,,0.00,WUHU216DAVISVP2,2013-10-07 07:02:00,
2013-10-07 02:07:00,47.8,43.5,30.00,SE,137,0.0,2.0,85,0.00,,,0.00,WUHU216DAVISVP2,2013-10-07 07:07:00,
2013-10-07 02:12:00,47.7,43.4,30.00,SE,137,0.0,2.0,85,0.00,,,0.00,WUHU216DAVISVP2,2013-10-07 07:12:00,
2013-10-07 02:17:00,47.5,43.2,30.00,SE,137,0.0,2.0,85,0.00,,,0.00,WUHU216DAVISVP2,2013-10-07 07:17:00,
2013-10-07 02:22:00,47.2,43.2,30.00,SE,137,0.0,2.0,86,0.00,,,0.00,WUHU216DAVISVP2,2013-10-07 07:22:00,
2013-10-07 02:27:00,47.0,43.0,30.00,SE,137,0.0,0.0,86,0.00,,,0.00,WUHU216DAVISVP2,2013-10-07 07:27:00,
2013-10-07 02:32:00,46.8,43.1,30.00,SE,137,0.0,0.0,87,0.00,,,0.00,WUHU216DAVISVP2,2013-10-07 07:32:00,
2013-10-07 02:37:00,46.6,42.9,30.00,SE,137,0.0,0.0,87,0.00,,,0.00,WUHU216DAVISVP2,2013-10-07 07:37:00,
2013-10-07 02:42:00,46.4,42.8,30.00,SE,137,0.0,0.0,87,0.00,,,0.00,WUHU216DAVISVP2,2013-10-07 07:42:00,
2013-10-07 02:47:00,46.5,43.1,30.00,SE,137,0.0,0.0,88,0.00,,,0.00,WUHU216DAVISVP2,2013-10-07 07:47:00,
2013-10-07 02:52:00,46.4,43.0,30.00,SE,137,0.0,0.0,88,0.00,,,0.00,WUHU216DAVISVP2,2013-10-07 07:52:00,
2013-10-07 02:57:00,46.3,42.9,30.00,SE,137,0.0,0.0,88,0.00,,,0.00,WUHU216DAVISVP2,2013-10-07 07:57:00,
2013-10-07 03:02:00,46.1,42.7,30.00,SE,137,0.0,0.0,88,0.00,,,0.00,WUHU216DAVISVP2,2013-10-07 08:02:00,
2013-10-07 03:07:00,45.8,42.4,30.00,SE,137,0.0,0.0,88,0.00,,,0.00,WUHU216DAVISVP2,2013-10-07 08:07:00,
2013-10-07 03:12:00,45.6,42.5,30.00,SE,137,0.0,0.0,89,0.00,,,0.00,WUHU216DAVISVP2,2013-10-07 08:12:00,
2013-10-07 03:17:00,45.6,42.5,30.00,SE,137,0.0,0.0,89,0.00,,,0.00,WUHU216DAVISVP2,2013-10-07 08:17:00,
2013-10-07 03:22:00,45.4,42.3,30.00,SE,137,0.0,0.0,89,0.00,,,0.00,WUHU216DAVISVP2,2013-10-07 08:22:00,
2013-10-07 03:27:00,45.2,42.4,30.00,SE,137,0.0,0.0,90,0.00,,,0.00,WUHU216DAVISVP2,2013-10-07 08:27:00,
2013-10-07 03:32:00,45.0,42.2,30.00,SE,137,0.0,0.0,90,0.00,,,0.00,WUHU216DAVISVP2,2013-10-07 08:32:00,
2013-10-07 03:37:00,44.8,42.0,30.00,SE,137,0.0,0.0,90,0.00,,,0.00,WUHU216DAVISVP2,2013-10-07 08:37:00,
2013-10-07 03:42:00,44.9,42.3,30.00,SE,137,0.0,0.0,91,0.00,,,0.00,WUHU216DAVISVP2,2013-10-07 08:42:00,
2013-10-07 03:47:00,45.0,42.5,30.00,SE,137,0.0,0.0,91,0.00,,,0.00,WUHU216DAVISVP2,2013-10-07 08:47:00,
2013-10-07 03:52:00,45.2,42.7,30.00,SE,137,0.0,0.0,91,0.00,,,0.00,WUHU216DAVISVP2,2013-10-07 08:52:00,
2013-10-07 03:57:00,45.4,42.6,30.00,SE,137,0.0,0.0,90,0.00,,,0.00,WUHU216DAVISVP2,2013-10-07 08:57:00,
2013-10-07 04:02:00,45.6,42.8,30.00,SE,137,0.0,0.0,90,0.00,,,0.00,WUHU216DAVISVP2,2013-10-07 09:02:00,
2013-10-07 04:07:00,45.8,42.7,30.01,SE,137,0.0,1.0,89,0.00,,,0.00,WUHU216DAVISVP2,2013-10-07 09:07:00,
2013-10-07 04:12:00,45.8,42.7,30.01,SE,137,0.0,1.0,89,0.00,,,0.00,WUHU216DAVISVP2,2013-10-07 09:12:00,
2013-10-07 04:17:00,45.9,42.8,30.01,SE,137,0.0,1.0,89,0.00,,,0.00,WUHU216DAVISVP2,2013-10-07 09:17:00,
2013-10-07 04:22:00,45.9,42.8,30.01,SE,137,0.0,1.0,89,0.00,,,0.00,WUHU216DAVISVP2,2013-10-07 09:22:00,
2013-10-07 04:27:00,46.0,42.6,30.01,SE,137,0.0,0.0,88,0.00,,,0.00,WUHU216DAVISVP2,2013-10-07 09:27:00,
2013-10-07 04:32:00,46.0,42.9,30.02,SE,137,0.0,3.0,89,0.00,,,0.00,WUHU216DAVISVP2,2013-10-07 09:32:00,
2013-10-07 04:37:00,46.0,42.6,30.02,SE,137,0.0,3.0,88,0.00,,,0.00,WUHU216DAVISVP2,2013-10-07 09:37:00,
2013-10-07 04:42:00,46.0,42.9,30.02,SE,137,0.0,3.0,89,0.00,,,0.00,WUHU216DAVISVP2,2013-10-07 09:42:00,
2013-10-07 04:47:00,46.0,42.9,30.02,SE,137,0.0,3.0,89,0.00,,,0.00,WUHU216DAVISVP2,2013-10-07 09:47:00,
2013-10-07 04:52:00,45.9,42.8,30.03,SE,137,0.0,2.0,89,0.00,,,0.00,WUHU216DAVISVP2,2013-10-07 09:52:00,
2013-10-07 04:57:00,45.9,42.8,30.03,SE,137,0.0,0.0,89,0.00,,,0.00,WUHU216DAVISVP2,2013-10-07 09:57:00,
2013-10-07 05:02:00,45.9,42.8,30.03,SE,137,2.0,3.0,89,0.00,,,0.00,WUHU216DAVISVP2,2013-10-07 10:02:00,
2013-10-07 05:07:00,45.8,42.7,30.03,SE,137,0.0,3.0,89,0.00,,,0.00,WUHU216DAVISVP2,2013-10-07 10:07:00,
2013-10-07 05:12:00,45.7,42.6,30.03,SE,136,0.0,3.0,89,0.00,,,0.00,WUHU216DAVISVP2,2013-10-07 10:12:00,
2013-10-07 05:17:00,45.7,42.6,30.03,SE,137,0.0,3.0,89,0.00,,,0.00,WUHU216DAVISVP2,2013-10-07 10:17:00,
2013-10-07 05:22:00,45.5,42.4,30.04,SE,137,0.0,2.0,89,0.00,,,0.00,WUHU216DAVISVP2,2013-10-07 10:22:00,
2013-10-07 05:27:00,45.3,42.5,30.04,SE,136,0.0,2.0,90,0.00,,,0.00,WUHU216DAVISVP2,2013-10-07 10:27:00,
2013-10-07 05:32:00,45.2,42.4,30.04,SE,137,0.0,2.0,90,0.00,,,0.00,WUHU216DAVISVP2,2013-10-07 10:32:00,
2013-10-07 05:37:00,45.1,42.3,30.04,SE,137,0.0,2.0,90,0.00,,,0.00,WUHU216DAVISVP2,2013-10-07 10:37:00,
2013-10-07 05:42:00,45.1,42.3,30.04,SE,137,0.0,2.0,90,0.00,,,0.00,WUHU216DAVISVP2,2013-10-07 10:42:00,
2013-10-07 05:47:00,45.1,42.3,30.04,SE,137,0.0,2.0,90,0.00,,,0.00,WUHU216DAVISVP2,2013-10-07 10:47:00,
2013-10-07 05:52:00,45.2,42.4,30.04,SE,137,1.0,2.0,90,0.00,,,0.00,WUHU216DAVISVP2,2013-10-07 10:52:00,
2013-10-07 05:57:00,45.3,42.5,30.04,SE,137,0.0,4.0,90,0.00,,,0.00,WUHU216DAVISVP2,2013-10-07 10:57:00,
2013-10-07 06:02:00,45.5,42.7,30.04,SE,137,1.0,4.0,90,0.00,,,0.00,WUHU216DAVISVP2,2013-10-07 11:02:00,
2013-10-07 06:07:00,45.8,43.0,30.05,SE,137,0.0,4.0,90,0.00,,,0.00,WUHU216DAVISVP2,2013-10-07 11:07:00,
2013-10-07 06:12:00,45.9,42.8,30.05,SE,137,2.0,7.0,89,0.00,,,0.00,WUHU216DAVISVP2,2013-10-07 11:12:00,
2013-10-07 06:17:00,46.0,42.9,30.05,SE,137,1.0,7.0,89,0.00,,,0.00,WUHU216DAVISVP2,2013-10-07 11:17:00,
2013-10-07 06:22:00,46.0,42.9,30.05,SE,137,0.0,7.0,89,0.00,,,0.00,WUHU216DAVISVP2,2013-10-07 11:22:00,
2013-10-07 06:27:00,45.9,42.8,30.05,SE,137,0.0,5.0,89,0.00,,,0.00,WUHU216DAVISVP2,2013-10-07 11:27:00,
2013-10-07 06:32:00,45.9,42.8,30.06,SE,137,0.0,5.0,89,0.00,,,0.00,WUHU216DAVISVP2,2013-10-07 11:32:00,
2013-10-07 06:37:00,45.8,42.7,30.06,SE,137,0.0,5.0,89,0.00,,,0.00,WUHU216DAVISVP2,2013-10-07 11:37:00,
2013-10-07 06:42:00,45.7,42.6,30.06,SE,137,0.0,3.0,89,0.00,,,0.00,WUHU216DAVISVP2,2013-10-07 11:42:00,
2013-10-07 06:47:00,45.8,42.7,30.06,SE,137,0.0,3.0,89,0.00,,,0.00,WUHU216DAVISVP2,2013-10-07 11:47:00,
2013-10-07 06:52:00,45.8,42.7,30.06,SE,137,0.0,3.0,89,0.00,,,0.00,WUHU216DAVISVP2,2013-10-07 11:52:00,
2013-10-07 06:57:00,45.8,42.7,30.07,SE,137,0.0,3.0,89,0.00,,,0.00,WUHU216DAVISVP2,2013-10-07 11:57:00,
2013-10-07 07:02:00,45.8,42.7,30.07,SE,137,3.0,5.0,89,0.00,,,0.00,WUHU216DAVISVP2,2013-10-07 12:02:00,
2013-10-07 07:07:00,45.7,42.6,30.07,SE,137,0.0,5.0,89,0.00,,,0.00,WUHU216DAVISVP2,2013-10-07 12:07:00,
2013-10-07 07:12:00,45.7,42.7,30.07,SE,137,1.0,5.0,89,0.00,,,0.00,WUHU216DAVISVP2,2013-10-07 12:12:00,
2013-10-07 07:17:00,45.9,42.8,30.07,SE,137,5.0,5.0,89,0.00,,,0.00,WUHU216DAVISVP2,2013-10-07 12:17:00,
2013-10-07 07:22:00,46.1,43.0,30.07,SE,137,2.0,5.0,89,0.00,,,0.00,WUHU216DAVISVP2,2013-10-07 12:22:00,
2013-10-07 07:27:00,46.4,43.0,30.08,SE,136,3.0,5.0,88,0.00,,,0.00,WUHU216DAVISVP2,2013-10-07 12:27:00,
2013-10-07 07:32:00,46.4,43.0,30.08,SE,134,3.0,7.0,88,0.00,,,0.00,WUHU216DAVISVP2,2013-10-07 12:32:00,
2013-10-07 07:37:00,46.6,42.9,30.07,SE,131,4.0,8.0,87,0.00,,,0.00,WUHU216DAVISVP2,2013-10-07 12:37:00,
2013-10-07 07:42:00,46.9,43.2,30.08,SE,133,4.0,9.0,87,0.00,,,0.00,WUHU216DAVISVP2,2013-10-07 12:42:00,
2013-10-07 07:47:00,47.1,43.1,30.08,ESE,122,1.0,9.0,86,0.00,,,0.00,WUHU216DAVISVP2,2013-10-07 12:47:00,
2013-10-07 07:52:00,47.2,43.3,30.08,SE,128,4.0,9.0,86,0.00,,,0.00,WUHU216DAVISVP2,2013-10-07 12:52:00,
2013-10-07 07:57:00,47.4,43.4,30.08,SE,136,4.0,9.0,86,0.00,,,0.00,WUHU216DAVISVP2,2013-10-07 12:57:00,
2013-10-07 08:02:00,47.5,43.2,30.08,SE,132,2.0,9.0,85,0.00,,,0.00,WUHU216DAVISVP2,2013-10-07 13:02:00,
2013-10-07 08:08:00,47.6,44.4,30.09,SE,132,3.0,9.0,89,0.00,,,0.00,WUHU216DAVISVP2,2013-10-07 13:08:00,
2013-10-07 08:13:00,47.7,43.4,30.09,SE,129,2.0,9.0,85,0.00,,,0.00,WUHU216DAVISVP2,2013-10-07 13:13:00,
2013-10-07 08:18:00,47.8,43.5,30.10,SSE,155,5.0,9.0,85,0.00,,,0.00,WUHU216DAVISVP2,2013-10-07 13:18:00,
2013-10-07 08:23:00,48.0,43.4,30.10,SE,127,8.0,8.0,84,0.00,,,0.00,WUHU216DAVISVP2,2013-10-07 13:23:00,
2013-10-07 08:28:00,48.1,43.2,30.10,SSE,150,9.0,11.0,83,0.00,,,0.00,WUHU216DAVISVP2,2013-10-07 13:28:00,
2013-10-07 08:33:00,48.4,43.4,30.10,ESE,122,5.0,11.0,83,0.00,,,0.00,WUHU216DAVISVP2,2013-10-07 13:33:00,
2013-10-07 08:38:00,48.5,43.3,30.10,SE,137,8.0,11.0,82,0.00,,,0.00,WUHU216DAVISVP2,2013-10-07 13:38:00,
2013-10-07 08:43:00,48.6,43.6,30.11,SE,141,0.0,11.0,83,0.00,,,0.00,WUHU216DAVISVP2,2013-10-07 13:43:00,
2013-10-07 08:48:00,48.6,43.4,30.11,SSE,150,5.0,10.0,82,0.00,,,0.00,WUHU216DAVISVP2,2013-10-07 13:48:00,
2013-10-07 08:53:00,48.9,43.3,30.11,SE,146,3.0,10.0,81,0.00,,,0.00,WUHU216DAVISVP2,2013-10-07 13:53:00,
2013-10-07 08:58:00,48.9,43.4,30.11,SSE,152,6.0,10.0,81,0.00,,,0.00,WUHU216DAVISVP2,2013-10-07 13:58:00,
2013-10-07 09:03:00,49.0,43.1,30.11,SE,143,1.0,10.0,80,0.00,,,0.00,WUHU216DAVISVP2,2013-10-07 14:03:00,
2013-10-07 09:08:00,49.1,43.2,30.11,SE,145,7.0,12.0,80,0.00,,,0.00,WUHU216DAVISVP2,2013-10-07 14:08:00,
2013-10-07 09:13:00,49.2,43.0,30.12,SSE,148,4.0,12.0,79,0.00,,,0.00,WUHU216DAVISVP2,2013-10-07 14:13:00,
2013-10-07 09:18:00,49.1,43.2,30.11,SSE,164,6.0,12.0,80,0.00,,,0.00,WUHU216DAVISVP2,2013-10-07 14:18:00,
2013-10-07 09:23:00,49.3,43.1,30.12,SE,136,11.0,12.0,79,0.00,,,0.00,WUHU216DAVISVP2,2013-10-07 14:23:00,
2013-10-07 09:28:00,49.6,43.4,30.12,SE,140,4.0,11.0,79,0.00,,,0.00,WUHU216DAVISVP2,2013-10-07 14:28:00,
2013-10-07 09:33:00,49.7,43.5,30.12,SE,139,1.0,11.0,79,0.00,,,0.00,WUHU216DAVISVP2,2013-10-07 14:33:00,
2013-10-07 09:38:00,50.1,43.5,30.12,SSE,156,0.0,11.0,78,0.00,,,0.00,WUHU216DAVISVP2,2013-10-07 14:38:00,
2013-10-07 09:43:00,50.5,43.0,30.12,South,170,9.0,11.0,75,0.00,,,0.00,WUHU216DAVISVP2,2013-10-07 14:43:00,
2013-10-07 09:48:00,50.8,42.9,30.12,South,186,5.0,11.0,74,0.00,,,0.00,WUHU216DAVISVP2,2013-10-07 14:48:00,
2013-10-07 09:53:00,51.0,42.7,30.12,SSE,148,4.0,11.0,73,0.00,,,0.00,WUHU216DAVISVP2,2013-10-07 14:53:00,
2013-10-07 09:58:00,51.1,42.5,30.12,South,179,4.0,10.0,72,0.00,,,0.00,WUHU216DAVISVP2,2013-10-07 14:58:00,
2013-10-07 10:03:00,51.5,42.5,30.12,South,182,6.0,10.0,71,0.00,,,0.00,WUHU216DAVISVP2,2013-10-07 15:03:00,
2013-10-07 10:08:00,51.7,42.7,30.12,SSW,199,6.0,11.0,71,0.00,,,0.00,WUHU216DAVISVP2,2013-10-07 15:08:00,
2013-10-07 10:13:00,52.0,42.9,30.12,South,169,5.0,11.0,71,0.00,,,0.00,WUHU216DAVISVP2,2013-10-07 15:13:00,
2013-10-07 10:18:00,52.2,42.8,30.13,SSE,148,2.0,12.0,70,0.00,,,0.00,WUHU216DAVISVP2,2013-10-07 15:18:00,
2013-10-07 10:23:00,52.5,42.8,30.13,SSE,166,5.0,12.0,69,0.00,,,0.00,WUHU216DAVISVP2,2013-10-07 15:23:00,
2013-10-07 10:28:00,52.9,43.1,30.13,SSE,167,5.0,12.0,69,0.00,,,0.00,WUHU216DAVISVP2,2013-10-07 15:28:00,
2013-10-07 10:33:00,53.0,42.8,30.13,SSE,149,7.0,12.0,68,0.00,,,0.00,WUHU216DAVISVP2,2013-10-07 15:33:00,
2013-10-07 10:38:00,52.9,42.7,30.13,South,179,4.0,12.0,68,0.00,,,0.00,WUHU216DAVISVP2,2013-10-07 15:38:00,
2013-10-07 10:43:00,52.8,41.9,30.13,South,186,6.0,12.0,66,0.00,,,0.00,WUHU216DAVISVP2,2013-10-07 15:43:00,
2013-10-07 10:48:00,53.1,42.1,30.13,South,178,2.0,12.0,66,0.00,,,0.00,WUHU216DAVISVP2,2013-10-07 15:48:00,
2013-10-07 10:53:00,53.2,42.2,30.13,South,183,1.0,12.0,66,0.00,,,0.00,WUHU216DAVISVP2,2013-10-07 15:53:00,
2013-10-07 10:58:00,53.4,42.4,30.13,South,177,11.0,12.0,66,0.00,,,0.00,WUHU216DAVISVP2,2013-10-07 15:58:00,
2013-10-07 11:03:00,53.4,42.4,30.13,SSE,168,4.0,12.0,66,0.00,,,0.00,WUHU216DAVISVP2,2013-10-07 16:03:00,
2013-10-07 11:08:00,53.6,42.2,30.13,South,183,5.0,15.0,65,0.00,,,0.00,WUHU216DAVISVP2,2013-10-07 16:08:00,
2013-10-07 11:13:00,53.8,42.8,30.13,SSW,193,7.0,15.0,66,0.00,,,0.00,WUHU216DAVISVP2,2013-10-07 16:13:00,
2013-10-07 11:18:00,53.8,42.1,30.13,South,186,6.0,15.0,64,0.00,,,0.00,WUHU216DAVISVP2,2013-10-07 16:18:00,
2013-10-07 11:23:00,53.9,42.5,30.13,SSW,207,8.0,15.0,65,0.00,,,0.00,WUHU216DAVISVP2,2013-10-07 16:23:00,
2013-10-07 11:28:00,54.0,42.6,30.13,South,170,2.0,14.0,65,0.00,,,0.00,WUHU216DAVISVP2,2013-10-07 16:28:00,
2013-10-07 11:33:00,54.5,42.7,30.13,South,173,3.0,14.0,64,0.00,,,0.00,WUHU216DAVISVP2,2013-10-07 16:33:00,
2013-10-07 11:38:00,54.5,41.9,30.13,SE,139,5.0,14.0,62,0.00,,,0.00,WUHU216DAVISVP2,2013-10-07 16:38:00,
2013-10-07 11:43:00,54.8,42.5,30.13,SSE,168,1.0,14.0,63,0.00,,,0.00,WUHU216DAVISVP2,2013-10-07 16:43:00,
2013-10-07 11:48:00,54.9,42.7,30.13,South,170,4.0,11.0,63,0.00,,,0.00,WUHU216DAVISVP2,2013-10-07 16:48:00,
2013-10-07 11:53:00,55.1,42.0,30.12,South,170,2.0,11.0,61,0.00,,,0.00,WUHU216DAVISVP2,2013-10-07 16:53:00,
2013-10-07 11:58:00,55.3,42.6,30.12,South,175,6.0,10.0,62,0.00,,,0.00,WUHU216DAVISVP2,2013-10-07 16:58:00,
2013-10-07 12:03:00,55.7,42.5,30.12,SSW,202,0.0,10.0,61,0.00,,,0.00,WUHU216DAVISVP2,2013-10-07 17:03:00,
2013-10-07 12:08:00,55.6,42.1,30.12,South,177,1.0,10.0,60,0.00,,,0.00,WUHU216DAVISVP2,2013-10-07 17:08:00,
2013-10-07 12:13:00,55.8,42.2,30.12,SW,230,7.0,10.0,60,0.00,,,0.00,WUHU216DAVISVP2,2013-10-07 17:13:00,
2013-10-07 12:18:00,56.1,41.2,30.12,SW,218,3.0,10.0,57,0.00,,,0.00,WUHU216DAVISVP2,2013-10-07 17:18:00,
2013-10-07 12:23:00,56.3,41.4,30.12,SSW,209,7.0,10.0,57,0.00,,,0.00,WUHU216DAVISVP2,2013-10-07 17:23:00,
2013-10-07 12:28:00,56.5,41.5,30.11,South,182,1.0,10.0,57,0.00,,,0.00,WUHU216DAVISVP2,2013-10-07 17:28:00,
2013-10-07 12:33:00,56.5,41.5,30.11,SSW,209,3.0,10.0,57,0.00,,,0.00,WUHU216DAVISVP2,2013-10-07 17:33:00,
2013-10-07 12:38:00,56.7,41.3,30.11,WSW,253,6.0,9.0,56,0.00,,,0.00,WUHU216DAVISVP2,2013-10-07 17:38:00,
2013-10-07 12:43:00,56.9,41.5,30.11,SSW,208,5.0,9.0,56,0.00,,,0.00,WUHU216DAVISVP2,2013-10-07 17:43:00,
2013-10-07 12:48:00,57.1,41.6,30.11,SSW,210,2.0,9.0,56,0.00,,,0.00,WUHU216DAVISVP2,2013-10-07 17:48:00,
2013-10-07 12:53:00,57.5,42.5,30.11,SSW,195,3.0,9.0,57,0.00,,,0.00,WUHU216DAVISVP2,2013-10-07 17:53:00,
2013-10-07 12:58:00,57.9,41.4,30.11,SE,145,6.0,9.0,54,0.00,,,0.00,WUHU216DAVISVP2,2013-10-07 17:58:00,
2013-10-07 13:03:00,58.1,41.6,30.11,South,186,4.0,10.0,54,0.00,,,0.00,WUHU216DAVISVP2,2013-10-07 18:03:00,
2013-10-07 13:08:00,58.6,42.1,30.11,SSW,205,2.0,10.0,54,0.00,,,0.00,WUHU216DAVISVP2,2013-10-07 18:08:00,
2013-10-07 13:13:00,58.7,42.2,30.11,South,175,5.0,10.0,54,0.00,,,0.00,WUHU216DAVISVP2,2013-10-07 18:13:00,
2013-10-07 13:18:00,58.7,41.7,30.11,SSW,200,0.0,8.0,53,0.00,,,0.00,WUHU216DAVISVP2,2013-10-07 18:18:00,
2013-10-07 13:23:00,58.8,41.3,30.11,WSW,252,2.0,9.0,52,0.00,,,0.00,WUHU216DAVISVP2,2013-10-07 18:23:00,
2013-10-07 13:28:00,59.1,42.5,30.11,South,186,5.0,9.0,54,0.00,,,0.00,WUHU216DAVISVP2,2013-10-07 18:28:00,
2013-10-07 13:33:00,59.5,41.9,30.11,SW,231,0.0,9.0,52,0.00,,,0.00,WUHU216DAVISVP2,2013-10-07 18:33:00,
2013-10-07 13:38:00,59.7,42.6,30.11,SW,231,0.0,9.0,53,0.00,,,0.00,WUHU216DAVISVP2,2013-10-07 18:38:00,
2013-10-07 13:43:00,60.3,42.1,30.11,SSW,195,0.0,7.0,51,0.00,,,0.00,WUHU216DAVISVP2,2013-10-07 18:43:00,
2013-10-07 13:48:00,60.8,43.6,30.11,SSW,195,1.0,6.0,53,0.00,,,0.00,WUHU216DAVISVP2,2013-10-07 18:48:00,
2013-10-07 13:53:00,60.9,41.1,30.10,SSE,167,2.0,6.0,48,0.00,,,0.00,WUHU216DAVISVP2,2013-10-07 18:53:00,
2013-10-07 13:58:00,60.9,41.6,30.10,South,181,0.0,7.0,49,0.00,,,0.00,WUHU216DAVISVP2,2013-10-07 18:58:00,
2013-10-07 14:03:00,61.1,41.8,30.10,WSW,254,5.0,10.0,49,0.00,,,0.00,WUHU216DAVISVP2,2013-10-07 19:03:00,
2013-10-07 14:08:00,61.3,41.4,30.10,SW,231,4.0,10.0,48,0.00,,,0.00,WUHU216DAVISVP2,2013-10-07 19:08:00,
2013-10-07 14:13:00,61.3,41.5,30.10,SW,235,1.0,10.0,48,0.00,,,0.00,WUHU216DAVISVP2,2013-10-07 19:13:00,
2013-10-07 14:18:00,61.3,41.4,30.10,SW,214,0.0,10.0,48,0.00,,,0.00,WUHU216DAVISVP2,2013-10-07 19:18:00,
2013-10-07 14:23:00,61.5,42.1,30.10,SSW,206,0.0,9.0,49,0.00,,,0.00,WUHU216DAVISVP2,2013-10-07 19:23:00,
2013-10-07 14:28:00,62.0,43.7,30.10,WNW,291,0.0,7.0,51,0.00,,,0.00,WUHU216DAVISVP2,2013-10-07 19:28:00,
2013-10-07 14:33:00,62.4,43.0,30.10,West,259,4.0,9.0,49,0.00,,,0.00,WUHU216DAVISVP2,2013-10-07 19:33:00,
2013-10-07 14:38:00,62.5,41.9,30.09,SSE,166,1.0,9.0,47,0.00,,,0.00,WUHU216DAVISVP2,2013-10-07 19:38:00,
2013-10-07 14:43:00,62.6,41.4,30.09,SE,129,0.0,9.0,46,0.00,,,0.00,WUHU216DAVISVP2,2013-10-07 19:43:00,
2013-10-07 14:48:00,62.4,42.5,30.10,SE,129,0.0,9.0,48,0.00,,,0.00,WUHU216DAVISVP2,2013-10-07 19:48:00,
2013-10-07 14:53:00,62.7,42.2,30.10,SE,129,0.0,6.0,47,0.00,,,0.00,WUHU216DAVISVP2,2013-10-07 19:53:00,
2013-10-07 14:58:00,63.3,42.7,30.09,SSE,158,4.0,5.0,47,0.00,,,0.00,WUHU216DAVISVP2,2013-10-07 19:58:00,
2013-10-07 15:03:00,63.4,42.2,30.09,SSE,156,0.0,5.0,46,0.00,,,0.00,WUHU216DAVISVP2,2013-10-07 20:03:00,
2013-10-07 15:08:00,63.7,43.1,30.09,SSE,156,0.0,5.0,47,0.00,,,0.00,WUHU216DAVISVP2,2013-10-07 20:08:00,
2013-10-07 15:13:00,64.1,43.4,30.09,SW,233,1.0,6.0,47,0.00,,,0.00,WUHU216DAVISVP2,2013-10-07 20:13:00,
2013-10-07 15:18:00,64.1,44.0,30.09,WSW,245,4.0,7.0,48,0.00,,,0.00,WUHU216DAVISVP2,2013-10-07 20:18:00,
2013-10-07 15:23:00,64.4,43.1,30.09,WSW,245,3.0,7.0,46,0.00,,,0.00,WUHU216DAVISVP2,2013-10-07 20:23:00,
2013-10-07 15:28:00,64.7,44.0,30.09,WSW,245,0.0,7.0,47,0.00,,,0.00,WUHU216DAVISVP2,2013-10-07 20:28:00,
2013-10-07 15:33:00,65.2,45.0,30.09,SW,234,0.0,7.0,48,0.00,,,0.00,WUHU216DAVISVP2,2013-10-07 20:33:00,
2013-10-07 15:38:00,65.5,44.2,30.08,South,191,3.0,6.0,46,0.00,,,0.00,WUHU216DAVISVP2,2013-10-07 20:38:00,
2013-10-07 15:43:00,65.7,44.9,30.09,South,191,3.0,6.0,47,0.00,,,0.00,WUHU216DAVISVP2,2013-10-07 20:43:00,
2013-10-07 15:48:00,65.7,44.3,30.08,SW,226,6.0,8.0,46,0.00,,,0.00,WUHU216DAVISVP2,2013-10-07 20:48:00,
2013-10-07 15:53:00,65.6,44.8,30.08,SSW,204,4.0,8.0,47,0.00,,,0.00,WUHU216DAVISVP2,2013-10-07 20:53:00,
2013-10-07 15:58:00,65.8,44.4,30.08,SSW,205,4.0,8.0,46,0.00,,,0.00,WUHU216DAVISVP2,2013-10-07 20:58:00,
2013-10-07 16:03:00,66.1,44.6,30.08,SSW,205,4.0,8.0,46,0.00,,,0.00,WUHU216DAVISVP2,2013-10-07 21:03:00,
2013-10-07 16:08:00,66.0,45.2,30.08,WSW,243,5.0,7.0,47,0.00,,,0.00,WUHU216DAVISVP2,2013-10-07 21:08:00,
2013-10-07 16:13:00,65.8,45.0,30.08,WSW,241,5.0,7.0,47,0.00,,,0.00,WUHU216DAVISVP2,2013-10-07 21:13:00,
2013-10-07 16:18:00,66.0,45.1,30.08,WSW,242,0.0,7.0,47,0.00,,,0.00,WUHU216DAVISVP2,2013-10-07 21:18:00,
2013-10-07 16:23:00,66.2,45.4,30.08,WSW,242,0.0,7.0,47,0.00,,,0.00,WUHU216DAVISVP2,2013-10-07 21:23:00,
2013-10-07 16:28:00,66.3,45.5,30.08,SW,216,0.0,6.0,47,0.00,,,0.00,WUHU216DAVISVP2,2013-10-07 21:28:00,
2013-10-07 16:33:00,66.8,47.6,30.08,SW,216,0.0,3.0,50,0.00,,,0.00,WUHU216DAVISVP2,2013-10-07 21:33:00,
2013-10-07 16:38:00,67.2,46.3,30.08,SW,216,0.0,3.0,47,0.00,,,0.00,WUHU216DAVISVP2,2013-10-07 21:38:00,
2013-10-07 16:43:00,67.7,46.7,30.08,SW,216,0.0,3.0,47,0.00,,,0.00,WUHU216DAVISVP2,2013-10-07 21:43:00,
2013-10-07 16:48:00,67.8,46.2,30.08,South,191,0.0,3.0,46,0.00,,,0.00,WUHU216DAVISVP2,2013-10-07 21:48:00,
2013-10-07 16:53:00,68.0,46.4,30.08,SSW,198,0.0,5.0,46,0.00,,,0.00,WUHU216DAVISVP2,2013-10-07 21:53:00,
2013-10-07 16:58:00,68.0,46.4,30.08,SSW,198,0.0,5.0,46,0.00,,,0.00,WUHU216DAVISVP2,2013-10-07 21:58:00,
2013-10-07 17:03:00,68.2,47.2,30.08,SSW,198,0.0,5.0,47,0.00,,,0.00,WUHU216DAVISVP2,2013-10-07 22:03:00,
2013-10-07 17:08:00,69.0,46.7,30.08,SSW,198,2.0,5.0,45,0.00,,,0.00,WUHU216DAVISVP2,2013-10-07 22:08:00,
2013-10-07 17:13:00,69.2,48.1,30.08,SSW,198,0.0,3.0,47,0.00,,,0.00,WUHU216DAVISVP2,2013-10-07 22:13:00,
2013-10-07 17:18:00,69.1,47.4,30.08,SSW,198,0.0,3.0,46,0.00,,,0.00,WUHU216DAVISVP2,2013-10-07 22:18:00,
2013-10-07 17:23:00,69.3,48.2,30.08,SSW,198,2.0,4.0,47,0.00,,,0.00,WUHU216DAVISVP2,2013-10-07 22:23:00,
2013-10-07 17:28:00,69.2,48.1,30.08,SSW,198,3.0,4.0,47,0.00,,,0.00,WUHU216DAVISVP2,2013-10-07 22:28:00,
2013-10-07 17:33:00,68.8,47.7,30.08,SSW,198,0.0,4.0,47,0.00,,,0.00,WUHU216DAVISVP2,2013-10-07 22:33:00,
2013-10-07 17:38:00,68.7,48.3,30.08,SSW,198,0.0,4.0,48,0.00,,,0.00,WUHU216DAVISVP2,2013-10-07 22:38:00,
2013-10-07 17:43:00,69.0,47.9,30.08,SSW,198,0.0,4.0,47,0.00,,,0.00,WUHU216DAVISVP2,2013-10-07 22:43:00,
2013-10-07 17:48:00,69.2,48.7,30.08,SSW,198,0.0,2.0,48,0.00,,,0.00,WUHU216DAVISVP2,2013-10-07 22:48:00,
2013-10-07 17:53:00,69.3,48.2,30.08,SSW,198,0.0,0.0,47,0.00,,,0.00,WUHU216DAVISVP2,2013-10-07 22:53:00,
2013-10-07 17:58:00,69.5,49.0,30.08,SSW,198,0.0,0.0,48,0.00,,,0.00,WUHU216DAVISVP2,2013-10-07 22:58:00,
2013-10-07 18:03:00,69.7,49.7,30.08,SSW,198,0.0,0.0,49,0.00,,,0.00,WUHU216DAVISVP2,2013-10-07 23:03:00,
2013-10-07 18:08:00,69.6,49.7,30.08,SSW,198,0.0,0.0,49,0.00,,,0.00,WUHU216DAVISVP2,2013-10-07 23:08:00,
2013-10-07 18:13:00,69.5,49.5,30.08,SSW,198,0.0,0.0,49,0.00,,,0.00,WUHU216DAVISVP2,2013-10-07 23:13:00,
2013-10-07 18:18:00,69.3,49.3,30.08,SSW,198,0.0,0.0,49,0.00,,,0.00,WUHU216DAVISVP2,2013-10-07 23:18:00,
2013-10-07 18:23:00,68.9,49.0,30.08,SSW,198,0.0,0.0,49,0.00,,,0.00,WUHU216DAVISVP2,2013-10-07 23:23:00,
2013-10-07 18:28:00,68.3,50.1,30.08,SSW,198,0.0,0.0,52,0.00,,,0.00,WUHU216DAVISVP2,2013-10-07 23:28:00,
2013-10-07 18:33:00,67.7,51.0,30.08,SSW,198,0.0,0.0,55,0.00,,,0.00,WUHU216DAVISVP2,2013-10-07 23:33:00,
2013-10-07 18:38:00,67.1,51.0,30.08,SSW,198,0.0,0.0,56,0.00,,,0.00,WUHU216DAVISVP2,2013-10-07 23:38:00,
2013-10-07 18:43:00,66.7,50.1,30.08,SSW,198,0.0,0.0,55,0.00,,,0.00,WUHU216DAVISVP2,2013-10-07 23:43:00,
2013-10-07 18:48:00,66.2,50.2,30.08,SSW,198,0.0,0.0,56,0.00,,,0.00,WUHU216DAVISVP2,2013-10-07 23:48:00,
2013-10-07 18:53:00,65.7,50.7,30.08,SSW,198,0.0,0.0,58,0.00,,,0.00,WUHU216DAVISVP2,2013-10-07 23:53:00,
2013-10-07 18:58:00,65.1,50.5,30.08,SSW,198,0.0,0.0,59,0.00,,,0.00,WUHU216DAVISVP2,2013-10-07 23:58:00,
2013-10-07 19:03:00,64.1,51.0,30.09,SSW,198,0.0,0.0,62,0.00,,,0.00,WUHU216DAVISVP2,2013-10-08 00:03:00,
2013-10-07 19:08:00,63.1,51.3,30.09,SSW,198,0.0,0.0,65,0.00,,,0.00,WUHU216DAVISVP2,2013-10-08 00:08:00,
2013-10-07 19:13:00,62.4,51.0,30.08,SSW,198,0.0,0.0,66,0.00,,,0.00,WUHU216DAVISVP2,2013-10-08 00:13:00,
2013-10-07 19:18:00,61.7,50.8,30.09,SSW,198,0.0,0.0,67,0.00,,,0.00,WUHU216DAVISVP2,2013-10-08 00:18:00,
2013-10-07 19:23:00,61.2,51.1,30.09,SSW,198,0.0,0.0,69,0.00,,,0.00,WUHU216DAVISVP2,2013-10-08 00:23:00,
2013-10-07 19:28:00,60.6,50.2,30.09,SSW,198,0.0,0.0,68,0.00,,,0.00,WUHU216DAVISVP2,2013-10-08 00:28:00,
2013-10-07 19:33:00,60.1,50.4,30.09,SSW,198,0.0,0.0,70,0.00,,,0.00,WUHU216DAVISVP2,2013-10-08 00:33:00,
2013-10-07 19:38:00,59.7,50.0,30.09,SSW,198,0.0,0.0,70,0.00,,,0.00,WUHU216DAVISVP2,2013-10-08 00:38:00,
2013-10-07 19:43:00,59.2,50.3,30.09,SSW,198,0.0,0.0,72,0.00,,,0.00,WUHU216DAVISVP2,2013-10-08 00:43:00,
2013-10-07 19:48:00,59.0,50.1,30.09,SSW,198,0.0,0.0,72,0.00,,,0.00,WUHU216DAVISVP2,2013-10-08 00:48:00,
2013-10-07 19:53:00,58.7,50.2,30.09,SSW,198,0.0,0.0,73,0.00,,,0.00,WUHU216DAVISVP2,2013-10-08 00:53:00,
2013-10-07 19:58:00,58.4,49.9,30.09,SSW,198,0.0,0.0,73,0.00,,,0.00,WUHU216DAVISVP2,2013-10-08 00:58:00,
2013-10-07 20:03:00,58.1,49.2,30.09,SSW,198,0.0,0.0,72,0.00,,,0.00,WUHU216DAVISVP2,2013-10-08 01:03:00,
2013-10-07 20:08:00,57.8,49.3,30.10,SSW,198,0.0,0.0,73,0.00,,,0.00,WUHU216DAVISVP2,2013-10-08 01:08:00,
2013-10-07 20:13:00,57.4,49.3,30.10,SSW,198,0.0,0.0,74,0.00,,,0.00,WUHU216DAVISVP2,2013-10-08 01:13:00,
2013-10-07 20:18:00,57.0,49.3,30.10,SSW,198,0.0,0.0,75,0.00,,,0.00,WUHU216DAVISVP2,2013-10-08 01:18:00,
2013-10-07 20:23:00,56.7,49.3,30.10,SSW,198,0.0,0.0,76,0.00,,,0.00,WUHU216DAVISVP2,2013-10-08 01:23:00,
2013-10-07 20:28:00,56.4,49.4,30.10,SSW,198,0.0,0.0,77,0.00,,,0.00,WUHU216DAVISVP2,2013-10-08 01:28:00,
2013-10-07 20:33:00,56.2,48.8,30.11,SSW,198,0.0,0.0,76,0.00,,,0.00,WUHU216DAVISVP2,2013-10-08 01:33:00,
2013-10-07 20:38:00,56.1,48.7,30.11,SSW,198,0.0,0.0,76,0.00,,,0.00,WUHU216DAVISVP2,2013-10-08 01:38:00,
2013-10-07 20:43:00,55.8,48.7,30.11,SSW,198,0.0,0.0,77,0.00,,,0.00,WUHU216DAVISVP2,2013-10-08 01:43:00,
2013-10-07 20:48:00,55.5,48.8,30.11,SSW,198,0.0,0.0,78,0.00,,,0.00,WUHU216DAVISVP2,2013-10-08 01:48:00,
2013-10-07 20:53:00,55.2,48.5,30.11,SSW,198,0.0,0.0,78,0.00,,,0.00,WUHU216DAVISVP2,2013-10-08 01:53:00,
2013-10-07 20:58:00,54.9,48.5,30.11,SSW,198,0.0,0.0,79,0.00,,,0.00,WUHU216DAVISVP2,2013-10-08 01:58:00,
2013-10-07 21:03:00,54.5,48.5,30.11,SSW,198,0.0,0.0,80,0.00,,,0.00,WUHU216DAVISVP2,2013-10-08 02:03:00,
2013-10-07 21:08:00,54.3,48.6,30.11,SSW,198,0.0,0.0,81,0.00,,,0.00,WUHU216DAVISVP2,2013-10-08 02:08:00,
2013-10-07 21:13:00,54.0,48.6,30.11,SSW,198,0.0,0.0,82,0.00,,,0.00,WUHU216DAVISVP2,2013-10-08 02:13:00,
2013-10-07 21:18:00,53.7,48.4,30.11,SSW,198,0.0,0.0,82,0.00,,,0.00,WUHU216DAVISVP2,2013-10-08 02:18:00,
2013-10-07 21:23:00,53.4,48.4,30.11,SSW,198,0.0,0.0,83,0.00,,,0.00,WUHU216DAVISVP2,2013-10-08 02:23:00,
2013-10-07 21:28:00,53.1,48.4,30.12,SSW,198,0.0,0.0,84,0.00,,,0.00,WUHU216DAVISVP2,2013-10-08 02:28:00,
2013-10-07 21:33:00,52.8,48.4,30.12,SSW,198,0.0,0.0,85,0.00,,,0.00,WUHU216DAVISVP2,2013-10-08 02:33:00,
2013-10-07 21:38:00,52.4,48.4,30.12,SSW,198,0.0,0.0,86,0.00,,,0.00,WUHU216DAVISVP2,2013-10-08 02:38:00,
2013-10-07 21:43:00,52.1,48.0,30.12,SSW,198,0.0,0.0,86,0.00,,,0.00,WUHU216DAVISVP2,2013-10-08 02:43:00,
2013-10-07 21:48:00,51.9,48.1,30.12,SSW,198,0.0,0.0,87,0.00,,,0.00,WUHU216DAVISVP2,2013-10-08 02:48:00,
2013-10-07 21:53:00,51.7,47.9,30.12,SSW,198,0.0,0.0,87,0.00,,,0.00,WUHU216DAVISVP2,2013-10-08 02:53:00,
2013-10-07 21:58:00,51.5,47.8,30.12,SSW,198,0.0,0.0,87,0.00,,,0.00,WUHU216DAVISVP2,2013-10-08 02:58:00,
2013-10-07 22:03:00,51.3,47.9,30.12,SSW,198,0.0,0.0,88,0.00,,,0.00,WUHU216DAVISVP2,2013-10-08 03:03:00,
2013-10-07 22:08:00,51.2,47.7,30.12,SSW,198,0.0,0.0,88,0.00,,,0.00,WUHU216DAVISVP2,2013-10-08 03:08:00,
2013-10-07 22:13:00,51.0,47.5,30.12,SSW,198,0.0,0.0,88,0.00,,,0.00,WUHU216DAVISVP2,2013-10-08 03:13:00,
2013-10-07 22:18:00,50.9,47.7,30.12,SSW,198,0.0,0.0,89,0.00,,,0.00,WUHU216DAVISVP2,2013-10-08 03:18:00,
2013-10-07 22:23:00,50.6,47.5,30.12,SSW,198,0.0,0.0,89,0.00,,,0.00,WUHU216DAVISVP2,2013-10-08 03:23:00,
2013-10-07 22:28:00,50.5,47.7,30.12,SSW,198,0.0,0.0,90,0.00,,,0.00,WUHU216DAVISVP2,2013-10-08 03:28:00,
2013-10-07 22:33:00,50.4,47.5,30.12,SSW,198,0.0,0.0,90,0.00,,,0.00,WUHU216DAVISVP2,2013-10-08 03:33:00,
2013-10-07 22:38:00,50.3,47.7,30.12,SSW,198,0.0,0.0,91,0.00,,,0.00,WUHU216DAVISVP2,2013-10-08 03:38:00,
2013-10-07 22:43:00,50.2,47.6,30.12,SSW,198,0.0,0.0,91,0.00,,,0.00,WUHU216DAVISVP2,2013-10-08 03:43:00,
2013-10-07 22:48:00,50.0,47.5,30.12,SSW,198,0.0,0.0,91,0.00,,,0.00,WUHU216DAVISVP2,2013-10-08 03:48:00,
2013-10-07 22:53:00,49.8,47.0,30.12,SSW,198,0.0,0.0,90,0.00,,,0.00,WUHU216DAVISVP2,2013-10-08 03:53:00,
2013-10-07 22:58:00,49.6,47.0,30.12,SSW,198,0.0,0.0,91,0.00,,,0.00,WUHU216DAVISVP2,2013-10-08 03:58:00,
2013-10-07 23:01:00,49.6,47.0,30.12,SSW,198,0.0,0.0,91,0.00,,,0.00,WUHU216DAVISVP2,2013-10-08 04:01:00,
2013-10-07 23:06:00,49.5,46.9,30.12,SSW,198,0.0,0.0,91,0.00,,,0.00,WUHU216DAVISVP2,2013-10-08 04:06:00,
2013-10-07 23:11:00,49.4,46.8,30.12,SSW,198,0.0,0.0,91,0.00,,,0.00,WUHU216DAVISVP2,2013-10-08 04:11:00,
2013-10-07 23:16:00,49.3,46.8,30.12,SSW,198,0.0,0.0,91,0.00,,,0.00,WUHU216DAVISVP2,2013-10-08 04:16:00,
2013-10-07 23:21:00,49.3,47.1,30.12,SSW,198,0.0,0.0,92,0.00,,,0.00,WUHU216DAVISVP2,2013-10-08 04:21:00,
2013-10-07 23:26:00,49.2,47.0,30.12,SSW,198,0.0,0.0,92,0.00,,,0.00,WUHU216DAVISVP2,2013-10-08 04:26:00,
2013-10-07 23:31:00,49.1,46.8,30.12,SSW,198,0.0,0.0,92,0.00,,,0.00,WUHU216DAVISVP2,2013-10-08 04:31:00,
2013-10-07 23:36:00,49.0,46.7,30.12,SSW,198,0.0,0.0,92,0.00,,,0.00,WUHU216DAVISVP2,2013-10-08 04:36:00,
2013-10-07 23:41:00,48.9,46.6,30.12,SSW,198,0.0,0.0,92,0.00,,,0.00,WUHU216DAVISVP2,2013-10-08 04:41:00,
2013-10-07 23:46:00,48.8,46.5,30.12,SSW,198,0.0,0.0,92,0.00,,,0.00,WUHU216DAVISVP2,2013-10-08 04:46:00,
2013-10-07 23:51:00,48.7,46.4,30.12,SSW,198,0.0,0.0,92,0.00,,,0.00,WUHU216DAVISVP2,2013-10-08 04:51:00,
2013-10-07 23:56:00,48.6,46.3,30.12,SSW,198,0.0,0.0,92,0.00,,,0.00,WUHU216DAVISVP2,2013-10-08 04:56:00,